Wind_Speed
26 26 26 26 26 26 25 26 26 27 26 25 25 26 26 25 25 25 25 26 25 24 24 23 23 24 24 24 24 24 24 24 24 23 23 24 24 24 24 23 23 23 23
26 27 27 27 28 28 27 27 27 28 28 27 27 27 28 28 28 27 27 27 26 26 26 26 26 26 25 25 25 25 25 25 25 24 24 24 24 24 24 23 24 24 23
27 27 27 28 28 28 28 28 29 29 29 29 29 29 29 29 29 29 28 28 28 28 28 27 27 27 26 26 26 26 26 26 25 25 25 25 24 24 24 24 24 24 24
27 28 28 29 29 29 29 30 30 30 31 31 31 31 31 31 30 30 30 30 30 30 29 29 28 28 28 27 27 27 27 27 27 26 26 25 25 25 24 24 25 25 25
27 28 28 29 29 30 30 30 30 31 31 31 32 33 33 33 31 31 31 30 30 30 30 30 29 29 29 28 28 28 28 28 27 27 26 26 26 26 26 25 25 25 26
28 28 29 29 29 29 29 30 30 31 31 32 31 33 33 32 32 32 32 31 31 31 31 30 30 30 30 29 29 29 29 28 28 28 27 27 27 27 27 27 26 26 26
28 29 29 29 29 29 29 29 30 30 31 32 31 32 32 32 32 32 32 33 32 31 31 30 30 30 30 30 29 29 29 28 28 29 29 28 28 28 28 28 28 27 27
30 29 29 29 29 29 29 29 30 30 30 31 31 32 32 33 32 32 32 32 31 31 31 30 30 30 30 30 30 30 29 29 28 28 28 28 29 30 30 30 30 29 29
29 30 30 30 29 29 30 30 30 30 30 31 31 32 32 32 32 31 32 32 31 31 30 31 31 30 30 30 31 31 30 30 30 29 29 29 29 29 30 30 30 30 30
30 30 30 31 30 30 31 31 32 32 32 31 32 32 31 31 31 31 31 31 31 32 31 31 31 30 30 31 32 32 31 31 31 31 31 31 30 30 30 31 31 31 31
31 31 31 31 31 30 31 31 31 31 31 31 31 32 31 31 30 30 30 31 31 31 31 31 31 32 31 31 31 32 31 31 31 31 31 31 31 30 31 31 32 32 32
31 31 31 30 30 30 30 30 30 31 31 31 31 31 31 31 30 30 31 31 31 31 31 31 31 32 31 31 31 31 31 32 32 31 31 31 31 31 31 31 31 31 31
29 29 29 29 30 30 30 30 30 30 30 29 30 29 28 29 29 30 31 31 32 32 32 32 32 32 32 32 32 32 32 32 32 31 31 31 31 30 30 31 31 31 31
29 29 29 29 29 28 29 29 29 28 28 27 27 28 27 27 28 29 30 30 31 32 32 32 32 31 31 31 31 32 32 32 31 31 31 31 30 30 30 30 31 31 31
29 29 29 28 27 27 27 27 27 27 27 27 27 27 28 28 28 28 29 29 30 31 31 31 30 29 29 30 31 32 32 32 31 31 31 31 31 31 31 31 31 31 30
28 27 27 26 26 25 25 26 26 26 26 27 27 27 28 28 27 28 28 29 29 29 29 29 29 30 30 31 31 31 31 31 31 32 32 32 31 31 31 31 31 30 30
27 26 25 25 24 25 25 25 25 25 25 25 26 27 27 27 26 27 28 28 28 28 29 29 29 29 30 31 31 31 32 31 31 31 31 31 31 31 31 31 31 31 30
25 24 24 23 22 23 24 25 25 25 25 25 25 26 27 27 27 27 27 27 28 28 28 29 30 29 30 30 31 31 32 32 32 32 32 32 31 31 31 31 31 31 30
24 24 23 22 23 23 24 24 24 24 25 25 26 26 27 27 26 26 27 27 28 28 28 29 29 30 30 29 29 30 30 30 31 31 31 31 31 30 30 30 31 31 31
23 23 23 23 24 24 24 24 24 24 24 25 26 27 27 26 26 26 26 27 27 27 28 28 28 29 29 28 28 28 29 29 29 30 29 29 28 28 29 29 30 31 31
23 24 24 24 24 24 24 24 24 25 25 25 26 26 25 25 25 25 25 26 26 27 27 28 28 28 28 28 28 28 28 28 28 28 28 28 29 29 30 30 31 31 32
24 24 25 25 25 25 24 24 25 25 25 25 25 25 24 24 24 24 25 25 25 26 26 27 27 27 28 28 27 27 28 28 28 29 29 29 29 30 30 31 31 31 31
24 25 25 25 25 25 25 25 24 24 24 24 24 24 24 24 24 25 25 26 26 26 26 27 27 27 27 28 28 28 28 29 30 31 31 30 30 30 30 30 30 31 31
24 25 25 24 25 25 25 25 24 24 24 24 24 25 25 25 26 26 26 26 26 26 26 26 26 26 27 28 29 29 30 30 31 31 31 31 31 31 31 31 31 31 32
25 25 25 24 25 25 25 25 25 25 25 25 25 25 26 26 27 27 27 27 27 27 27 27 27 27 28 28 29 30 30 31 32 32 32 32 32 32 31 32 32 32 32
25 25 25 24 25 25 25 25 25 25 25 26 26 26 26 27 27 28 28 28 27 27 28 28 28 28 28 29 29 30 30 31 31 31 31 31 31 31 32 32 32 32 32
Wind_Direction
277 276 276 276 276 275 274 275 274 273 271 269 270 271 272 274 274 274 274 274 272 271 271 272 274 272 271 272 274 274 273 272 271 271 272 270 269 268 269 270 272 271 273
278 278 277 276 276 275 274 274 274 272 271 269 270 271 272 273 274 274 273 272 270 270 271 272 271 271 271 272 273 274 274 274 272 271 271 271 271 269 268 269 270 270 270
278 279 278 277 276 276 275 273 273 272 271 270 270 270 271 272 273 273 273 272 271 271 272 273 271 270 272 273 272 273 274 274 273 271 270 270 270 269 269 269 269 270 270
282 281 280 279 278 277 275 274 272 271 271 271 271 270 270 272 272 272 273 273 270 271 271 271 271 271 272 273 271 272 273 273 273 273 271 271 270 269 269 270 270 270 270
284 283 282 281 279 278 277 275 274 273 272 271 272 271 271 272 271 272 274 273 271 270 270 269 269 270 270 271 271 271 272 272 272 273 272 270 269 269 269 270 271 270 269
284 284 284 283 281 279 278 277 275 275 272 272 273 272 272 272 272 273 273 273 270 268 268 268 268 269 269 270 271 271 270 270 270 270 270 270 269 270 269 269 271 271 271
286 285 285 284 282 281 279 278 277 276 275 273 272 272 273 272 271 271 273 272 269 268 266 266 267 268 269 269 269 270 270 270 271 271 270 270 268 268 268 268 269 270 270
286 285 285 283 281 280 279 278 277 277 276 275 273 273 274 274 272 271 271 272 270 268 266 266 266 267 268 268 268 269 270 271 271 271 272 270 269 268 268 268 267 268 270
288 285 283 282 280 279 279 278 278 277 276 276 274 274 275 275 272 270 271 271 271 269 267 266 266 267 268 268 269 270 271 272 273 274 273 272 271 269 268 267 268 268 270
287 286 284 282 279 279 279 279 278 277 276 276 275 274 274 272 271 271 271 270 270 269 267 267 267 267 268 267 268 269 270 272 273 274 275 274 274 272 269 268 268 269 269
287 287 285 283 280 279 279 279 280 279 278 277 275 274 274 273 271 272 271 270 269 268 266 267 267 268 268 267 268 269 270 271 272 273 273 273 273 273 271 270 270 271 271
287 287 285 282 281 280 281 282 281 280 280 279 276 274 273 272 271 271 271 271 269 267 267 266 267 267 267 267 269 270 270 271 272 272 272 272 272 271 272 270 270 272 271
287 287 286 283 281 282 283 283 283 282 281 280 278 275 274 272 272 272 270 271 269 268 267 266 266 266 266 267 269 270 270 270 271 271 271 271 271 270 270 270 270 272 272
288 289 287 285 284 284 283 284 283 284 283 281 279 277 276 276 275 274 274 274 272 270 267 265 266 266 266 267 268 269 270 269 269 270 271 271 271 270 270 270 270 271 270
290 290 288 288 285 284 284 284 284 284 284 283 280 280 278 276 276 276 276 275 274 271 268 265 265 265 267 269 270 269 269 269 269 270 270 271 271 271 271 271 271 271 270
290 289 287 285 285 285 287 287 286 286 285 285 282 281 281 280 278 278 277 277 275 272 268 266 266 266 268 270 270 270 269 269 270 270 270 270 270 270 269 270 272 271 271
290 288 287 286 284 284 286 287 287 286 285 285 283 283 283 282 281 281 280 278 275 272 269 268 267 267 269 269 269 269 269 270 270 270 269 268 268 269 268 269 270 269 271
291 289 286 286 285 285 286 287 286 284 283 283 283 283 282 283 282 282 282 279 276 273 270 269 268 268 269 270 269 269 269 270 269 269 270 269 267 267 268 269 269 269 271
290 289 288 287 288 288 288 288 288 285 283 283 283 284 283 283 282 282 282 281 278 275 273 271 269 269 269 270 270 270 270 270 270 270 270 268 266 265 266 269 270 270 271
292 292 292 291 290 291 290 288 288 287 286 286 286 285 284 283 283 283 283 282 280 279 276 274 272 270 269 269 268 269 269 270 270 270 270 268 267 267 268 269 271 272 272
292 292 293 293 293 292 291 288 287 286 286 288 288 288 286 285 286 286 285 284 283 281 278 275 272 271 270 269 269 269 268 268 267 268 268 268 268 268 269 270 270 271 272
291 292 292 292 293 292 293 292 290 289 287 287 288 287 287 287 288 288 288 287 286 284 281 278 274 271 269 268 268 269 269 270 270 270 269 269 268 268 269 270 271 272 272
289 290 291 290 290 289 291 291 290 288 288 288 288 286 285 286 287 287 288 288 287 286 285 282 278 274 273 271 270 270 271 271 271 271 270 269 269 269 269 270 271 272 272
289 290 290 290 289 288 290 290 289 288 288 288 288 287 286 286 287 288 288 287 287 286 285 283 280 276 275 274 274 273 272 273 273 272 271 271 271 271 270 270 271 272 272
288 289 290 290 290 290 290 290 289 288 288 289 289 289 288 288 288 288 287 286 286 286 285 284 282 278 277 276 275 275 275 275 276 274 272 272 272 272 272 271 271 272 273
289 289 289 290 291 291 289 289 289 289 289 289 290 290 290 291 290 290 288 286 285 286 286 285 283 280 279 278 278 277 276 276 275 275 274 272 273 273 273 273 273 273 273
Height
5789 5788 5788 5788 5787 5787 5787 5787 5786 5786 5785 5785 5785 5785 5784 5784 5784 5784 5784 5783 5783 5783 5782 5782 5782 5782 5781 5781 5781 5780 5780 5780 5781 5781 5780 5780 5780 5780 5781 5781 5781 5781 5781
5782 5781 5780 5780 5779 5779 5779 5779 5778 5778 5778 5778 5777 5777 5777 5777 5776 5776 5776 5776 5776 5775 5775 5775 5774 5774 5774 5773 5773 5773 5773 5773 5773 5773 5773 5773 5773 5773 5773 5774 5774 5774 5774
5774 5773 5772 5772 5771 5771 5770 5770 5770 5770 5769 5769 5769 5769 5768 5768 5768 5768 5768 5768 5767 5767 5767 5767 5766 5766 5766 5766 5765 5765 5765 5765 5765 5765 5765 5765 5765 5765 5765 5766 5766 5766 5766
5766 5765 5764 5763 5762 5762 5761 5761 5761 5761 5760 5760 5760 5760 5759 5759 5759 5759 5759 5759 5759 5758 5758 5758 5758 5758 5758 5758 5757 5757 5757 5757 5757 5757 5757 5757 5757 5757 5758 5758 5758 5758 5758
5758 5756 5755 5754 5753 5752 5751 5751 5751 5751 5750 5750 5750 5749 5749 5749 5749 5750 5750 5749 5749 5749 5749 5750 5750 5749 5749 5749 5749 5749 5749 5749 5748 5748 5748 5748 5749 5749 5749 5750 5750 5750 5750
5749 5748 5746 5745 5744 5743 5742 5741 5741 5740 5740 5740 5740 5739 5739 5739 5739 5740 5740 5740 5740 5740 5740 5740 5740 5740 5740 5740 5740 5740 5740 5740 5740 5740 5740 5740 5741 5741 5741 5741 5741 5742 5742
5741 5739 5737 5736 5735 5733 5732 5731 5731 5730 5730 5730 5729 5729 5729 5729 5729 5729 5729 5730 5730 5730 5730 5731 5731 5731 5731 5731 5731 5731 5731 5730 5731 5731 5731 5731 5732 5732 5732 5732 5732 5732 5733
5733 5730 5729 5727 5726 5724 5723 5722 5721 5721 5720 5720 5719 5719 5719 5719 5719 5719 5719 5719 5720 5720 5720 5721 5721 5722 5722 5722 5722 5722 5722 5722 5722 5722 5722 5722 5723 5723 5723 5723 5723 5723 5724
5724 5722 5720 5718 5717 5716 5714 5713 5712 5711 5710 5710 5709 5709 5709 5708 5708 5709 5709 5710 5710 5710 5711 5711 5712 5712 5712 5712 5712 5713 5713 5713 5712 5712 5713 5713 5713 5713 5713 5713 5714 5714 5715
5715 5713 5711 5709 5708 5707 5705 5704 5702 5702 5701 5700 5699 5699 5699 5699 5698 5699 5699 5700 5700 5701 5701 5702 5702 5702 5702 5702 5703 5703 5703 5703 5703 5703 5703 5703 5703 5703 5703 5703 5704 5704 5705
5706 5704 5702 5700 5698 5697 5696 5694 5693 5692 5691 5690 5690 5689 5689 5689 5689 5689 5690 5690 5690 5690 5691 5692 5692 5692 5693 5693 5693 5693 5693 5693 5693 5693 5693 5693 5693 5693 5693 5693 5694 5694 5694
5697 5695 5692 5691 5689 5688 5687 5685 5684 5683 5682 5680 5680 5679 5679 5679 5679 5679 5680 5680 5680 5681 5681 5682 5682 5682 5682 5683 5683 5683 5683 5683 5683 5683 5683 5683 5683 5683 5683 5683 5683 5683 5683
5688 5686 5683 5682 5680 5679 5677 5676 5675 5673 5672 5671 5671 5670 5670 5670 5669 5670 5670 5670 5670 5670 5671 5671 5672 5672 5672 5672 5673 5673 5673 5672 5672 5673 5673 5673 5673 5673 5673 5673 5674 5674 5674
5679 5677 5675 5673 5671 5670 5669 5667 5666 5665 5664 5663 5662 5662 5661 5661 5661 5660 5660 5660 5660 5660 5660 5660 5661 5661 5662 5662 5662 5662 5662 5662 5662 5663 5663 5663 5663 5663 5664 5664 5664 5664 5664
5671 5669 5666 5664 5663 5662 5660 5659 5658 5657 5656 5655 5654 5653 5653 5652 5652 5651 5651 5650 5650 5650 5650 5650 5651 5652 5652 5652 5652 5652 5652 5652 5652 5652 5653 5653 5653 5653 5654 5654 5654 5654 5654
5663 5660 5658 5657 5655 5654 5652 5651 5650 5649 5648 5646 5645 5645 5644 5643 5643 5642 5642 5641 5640 5640 5641 5641 5641 5642 5642 5642 5642 5642 5642 5642 5642 5642 5642 5643 5643 5644 5644 5644 5644 5644 5645
5655 5653 5651 5649 5648 5646 5645 5644 5642 5641 5640 5639 5638 5636 5636 5635 5634 5633 5632 5632 5631 5631 5631 5631 5631 5632 5632 5632 5632 5632 5632 5631 5632 5632 5632 5632 5633 5633 5634 5634 5634 5635 5635
5647 5645 5644 5642 5640 5639 5638 5636 5635 5634 5633 5631 5630 5629 5628 5627 5626 5625 5624 5623 5622 5622 5621 5621 5622 5622 5622 5622 5622 5621 5621 5621 5621 5621 5622 5622 5622 5623 5624 5624 5624 5625 5625
5640 5638 5637 5635 5634 5632 5630 5629 5627 5626 5625 5624 5623 5621 5620 5619 5618 5617 5616 5615 5614 5613 5612 5612 5612 5612 5612 5612 5612 5611 5611 5611 5611 5611 5611 5612 5612 5613 5613 5614 5614 5614 5615
5634 5632 5630 5628 5626 5625 5623 5622 5620 5619 5618 5616 5615 5614 5612 5611 5610 5609 5607 5606 5605 5604 5603 5603 5603 5602 5602 5602 5602 5602 5602 5602 5602 5602 5602 5602 5603 5603 5603 5604 5604 5604 5604
5627 5625 5623 5621 5619 5618 5616 5615 5613 5612 5611 5609 5608 5606 5604 5603 5602 5601 5599 5598 5597 5595 5594 5594 5593 5593 5593 5593 5593 5593 5593 5592 5592 5592 5593 5593 5593 5594 5594 5594 5594 5594 5594
5620 5618 5616 5614 5612 5611 5609 5607 5606 5604 5603 5602 5600 5598 5597 5596 5594 5593 5591 5590 5588 5587 5586 5585 5584 5584 5584 5584 5584 5584 5584 5583 5583 5583 5584 5584 5584 5584 5584 5584 5584 5584 5583
5612 5611 5609 5607 5605 5604 5602 5600 5598 5597 5595 5594 5592 5591 5590 5588 5587 5585 5584 5582 5580 5579 5578 5577 5576 5575 5574 5574 5574 5574 5574 5574 5574 5574 5574 5574 5574 5574 5574 5574 5574 5573 5573
5605 5603 5601 5600 5598 5596 5594 5593 5591 5589 5588 5586 5585 5583 5582 5580 5579 5577 5575 5574 5572 5571 5569 5568 5567 5566 5566 5565 5565 5565 5565 5565 5564 5564 5563 5564 5564 5564 5563 5564 5563 5563 5563
5597 5596 5594 5592 5590 5589 5587 5585 5583 5582 5580 5578 5577 5575 5574 5572 5570 5569 5567 5565 5564 5562 5561 5559 5558 5557 5557 5556 5555 5555 5555 5554 5554 5553 5553 5553 5553 5553 5553 5553 5552 5552 5552
5590 5588 5587 5585 5583 5581 5579 5577 5576 5574 5572 5571 5569 5567 5566 5564 5562 5560 5558 5556 5555 5553 5552 5550 5549 5548 5547 5546 5546 5545 5544 5544 5543 5543 5542 5542 5542 5542 5542 5542 5542 5541 5541